^^
Your Local Weather - Clay, NY Station Historical Data
Daily Summary for March 7, 2018 Units:  Metric    English   Both
« Previous Day
Next Day »
Daily Weekly Monthly Yearly Custom
  High: Low: Average:
Temperature: 1.2 °C -0.2 °C 0.4 °C
Dew Point: -0.1 °C -2.2 °C -1.3 °C
Humidity: 93% 84% 88%
Wind Speed: 9.7km/h 0km/h 4km/h
Wind Gust: 17.7km/h - -
Wind- - East
Pressure: 1009.7 hPa 1006 hPa -
Precipitation: 1.78 mm    
Historical Graphs
 
 
Tabular Data for March 7, 2018
Time Temperature Dew Point Pressure Wind Wind Speed Wind Gust Humidity Rainfall Rate (Hourly) solar
00:00 0.2 °C -1.1 °C 1009.7 hPa Calm   1.6 km/h 91% 0 mm 0 W/m2
00:06 0.2 °C -1.1 °C 1009.7 hPa Calm   3.2 km/h 91% 0 mm 0 W/m2
00:12 0.2 °C -1.1 °C 1009.7 hPa Calm   1.6 km/h 91% 0 mm 0 W/m2
00:18 0.2 °C -1.1 °C 1009.7 hPa SE 1.6 km/h 4.8 km/h 91% 0 mm 0 W/m2
00:24 0.2 °C -1.1 °C 1009.7 hPa ESE 3.2 km/h 3.2 km/h 91% 0 mm 0 W/m2
00:30 0.2 °C -1.1 °C 1009.7 hPa East 1.6 km/h 3.2 km/h 91% 0 mm 0 W/m2
00:36 0.3 °C -0.9 °C 1009.7 hPa ESE 1.6 km/h 4.8 km/h 92% 0 mm 0 W/m2
00:42 0.3 °C -0.9 °C 1009.4 hPa East 3.2 km/h 3.2 km/h 92% 0 mm 0 W/m2
00:48 0.3 °C -0.8 °C 1009.4 hPa ENE 3.2 km/h 3.2 km/h 92% 0 mm 0 W/m2
00:54 0.3 °C -0.8 °C 1009 hPa East 3.2 km/h 8 km/h 92% 0 mm 0 W/m2
01:00 0.4 °C -0.8 °C 1009 hPa East 3.2 km/h 3.2 km/h 92% 0 mm 0 W/m2
01:06 0.4 °C -0.8 °C 1008.7 hPa ENE 1.6 km/h 3.2 km/h 92% 0 mm 0 W/m2
01:12 0.4 °C -0.7 °C 1008.7 hPa ENE 1.6 km/h 3.2 km/h 92% 0 mm 0 W/m2
01:18 0.5 °C -0.7 °C 1008.7 hPa ENE 1.6 km/h 3.2 km/h 92% 0 mm 0 W/m2
01:24 0.4 °C -0.7 °C 1008.7 hPa Calm   1.6 km/h 92% 0 mm 0 W/m2
01:30 0.5 °C -0.7 °C 1008.7 hPa Calm     92% 0 mm 0 W/m2
01:36 0.5 °C -0.7 °C 1008.7 hPa Calm     92% 0 mm 0 W/m2
01:42 0.6 °C -0.6 °C 1008.7 hPa ENE 1.6 km/h 1.6 km/h 92% 0 mm 0 W/m2
01:48 0.6 °C -0.6 °C 1008.7 hPa ENE 1.6 km/h 3.2 km/h 92% 0 mm 0 W/m2
01:54 0.6 °C -0.6 °C 1008.4 hPa SE 1.6 km/h 4.8 km/h 92% 0 mm 0 W/m2
02:00 0.6 °C -0.6 °C 1008.7 hPa East 1.6 km/h 1.6 km/h 92% 0 mm 0 W/m2
02:06 0.7 °C -0.5 °C 1008.4 hPa SE 1.6 km/h 4.8 km/h 92% 0 mm 0 W/m2
02:12 0.7 °C -0.5 °C 1008 hPa East 1.6 km/h 1.6 km/h 92% 0 mm 0 W/m2
02:18 0.7 °C -0.5 °C 1008.4 hPa East 1.6 km/h 3.2 km/h 92% 0 mm 0 W/m2
02:24 0.7 °C -0.5 °C 1008.4 hPa East 1.6 km/h 3.2 km/h 92% 0 mm 0 W/m2
02:30 0.7 °C -0.4 °C 1008.4 hPa ESE 1.6 km/h 1.6 km/h 92% 0 mm 0 W/m2
02:36 0.7 °C -0.4 °C 1008.4 hPa East 1.6 km/h 3.2 km/h 92% 0 mm 0 W/m2
02:42 0.7 °C -0.4 °C 1008.4 hPa East 1.6 km/h 1.6 km/h 92% 0 mm 0 W/m2
02:48 0.8 °C -0.4 °C 1008.7 hPa ESE 1.6 km/h 8 km/h 92% 0 mm 0 W/m2
02:54 0.8 °C -0.2 °C 1008.7 hPa ENE 3.2 km/h 6.4 km/h 93% 0 mm 0 W/m2
03:00 0.9 °C -0.1 °C 1008.4 hPa East 3.2 km/h 3.2 km/h 93% 0 mm 0 W/m2
03:06 0.9 °C -0.2 °C 1008.4 hPa ESE 4.8 km/h 4.8 km/h 92% 0 mm 0 W/m2
03:12 1 °C -0.2 °C 1008.4 hPa ENE 3.2 km/h 6.4 km/h 92% 0 mm 0 W/m2
03:18 1 °C -0.2 °C 1008 hPa East 3.2 km/h 6.4 km/h 92% 0 mm 0 W/m2
03:24 1 °C -0.2 °C 1008 hPa East 3.2 km/h 8 km/h 92% 0 mm 0 W/m2
03:30 1 °C -0.2 °C 1008 hPa East 4.8 km/h 4.8 km/h 92% 0 mm 0 W/m2
03:36 1.1 °C -0.1 °C 1008 hPa ESE 4.8 km/h 8 km/h 92% 0 mm 0 W/m2
03:42 1.1 °C -0.1 °C 1008 hPa ENE 4.8 km/h 4.8 km/h 92% 0 mm 0 W/m2
03:48 1.1 °C -0.2 °C 1008 hPa East 3.2 km/h 4.8 km/h 91% 0 mm 0 W/m2
03:54 1 °C -0.3 °C 1008 hPa Calm   4.8 km/h 91% 0 mm 0 W/m2
04:00 1.1 °C -0.2 °C 1008 hPa East 3.2 km/h 3.2 km/h 91% 0 mm 0 W/m2
04:06 1.1 °C -0.4 °C 1008 hPa ESE 4.8 km/h 4.8 km/h 90% 0 mm 0 W/m2
04:12 1.1 °C -0.3 °C 1008 hPa SE 3.2 km/h 8 km/h 90% 0 mm 0 W/m2
04:18 1.1 °C -0.3 °C 1008 hPa SE 3.2 km/h 8 km/h 90% 0 mm 0 W/m2
04:24 1.1 °C -0.5 °C 1008 hPa SSE 4.8 km/h 6.4 km/h 89% 0 mm 0 W/m2
04:34 1.2 °C -0.6 °C 1008 hPa ESE 4.8 km/h 6.4 km/h 88% 0 mm 0 W/m2
04:40 1.2 °C -0.6 °C 1008 hPa SSE 4.8 km/h 4.8 km/h 88% 0 mm 0 W/m2
04:46 1.2 °C -0.7 °C 1008 hPa East 3.2 km/h 8 km/h 87% 0 mm 0 W/m2
04:52 1.2 °C -0.7 °C 1008 hPa SE 3.2 km/h 4.8 km/h 87% 0 mm 0 W/m2
04:58 1.2 °C -0.7 °C 1008 hPa ESE 3.2 km/h 4.8 km/h 87% 0 mm 0 W/m2
05:04 1.2 °C -0.8 °C 1008 hPa ESE 1.6 km/h 3.2 km/h 87% 0 mm 0 W/m2
05:10 1.1 °C -0.8 °C 1008 hPa East 3.2 km/h 3.2 km/h 87% 0 mm 0 W/m2
05:16 1.1 °C -0.9 °C 1008 hPa East 3.2 km/h 3.2 km/h 87% 0 mm 0 W/m2
05:22 1 °C -0.9 °C 1008 hPa ESE 1.6 km/h 1.6 km/h 87% 0 mm 0 W/m2
05:28 1 °C -0.9 °C 1008 hPa ESE 1.6 km/h 3.2 km/h 87% 0 mm 0 W/m2
05:34 1 °C -0.9 °C 1008 hPa ESE 1.6 km/h 3.2 km/h 87% 0 mm 0 W/m2
05:40 0.9 °C -0.8 °C 1008 hPa ENE 3.2 km/h 3.2 km/h 88% 0 mm 0 W/m2
05:46 0.9 °C -0.8 °C 1008 hPa ESE 3.2 km/h 3.2 km/h 88% 0 mm 0 W/m2
05:52 0.9 °C -0.8 °C 1008 hPa ENE 1.6 km/h 3.2 km/h 88% 0 mm 0 W/m2
05:58 0.9 °C -0.9 °C 1008 hPa East 1.6 km/h 6.4 km/h 88% 0 mm 0 W/m2
06:04 0.8 °C -1 °C 1008 hPa NE 3.2 km/h 4.8 km/h 88% 0 mm 0 W/m2
06:10 0.7 °C -0.9 °C 1008 hPa ENE 3.2 km/h 3.2 km/h 89% 0 mm 0 W/m2
06:16 0.6 °C -1 °C 1008 hPa East 4.8 km/h 4.8 km/h 89% 0 mm 0 W/m2
06:22 0.6 °C -0.9 °C 1008 hPa East 6.4 km/h 6.4 km/h 90% 0 mm 0 W/m2
06:28 0.5 °C -0.9 °C 1008 hPa ENE 4.8 km/h 11.3 km/h 90% 0 mm 0 W/m2
06:34 0.5 °C -0.9 °C 1008 hPa East 4.8 km/h 4.8 km/h 90% 0 mm 0 W/m2
06:40 0.4 °C -1 °C 1008 hPa ENE 3.2 km/h 4.8 km/h 90% 0 mm 0 W/m2
06:46 0.4 °C -1 °C 1008 hPa East 4.8 km/h 11.3 km/h 90% 0 mm 0 W/m2
06:52 0.4 °C -1.1 °C 1007.7 hPa ENE 4.8 km/h 12.9 km/h 90% 0 mm 0 W/m2
06:58 0.3 °C -1.1 °C 1007.7 hPa ENE 6.4 km/h 12.9 km/h 90% 0 mm 0 W/m2
07:04 0.3 °C -1.1 °C 1008 hPa ENE 6.4 km/h 12.9 km/h 90% 0 mm 5 W/m2
07:10 0.3 °C -1.2 °C 1008 hPa ENE 6.4 km/h 11.3 km/h 90% 0 mm 7 W/m2
07:16 0.3 °C -1.2 °C 1008 hPa ENE 6.4 km/h 11.3 km/h 90% 0 mm 11 W/m2
07:22 0.3 °C -1.3 °C 1007.7 hPa ENE 6.4 km/h 8 km/h 89% 0 mm 16 W/m2
07:28 0.3 °C -1.3 °C 1008 hPa ENE 6.4 km/h 8 km/h 89% 0 mm 16 W/m2
07:34 0.3 °C -1.3 °C 1007.7 hPa East 8 km/h 12.9 km/h 89% 0 mm 12 W/m2
07:40 0.2 °C -1.4 °C 1007.7 hPa NE 6.4 km/h 16.1 km/h 89% 0 mm 12 W/m2
07:46 0.2 °C -1.4 °C 1007.7 hPa East 4.8 km/h 16.1 km/h 89% 0 mm 19 W/m2
07:52 0.2 °C -1.6 °C 1008 hPa ENE 4.8 km/h 4.8 km/h 88% 0 mm 21 W/m2
07:58 0.2 °C -1.6 °C 1008 hPa East 8 km/h 11.3 km/h 88% 0 mm 23 W/m2
08:04 0.2 °C -1.6 °C 1008 hPa ENE 6.4 km/h 9.7 km/h 88% 0 mm 33 W/m2
08:10 0.2 °C -1.6 °C 1007.7 hPa SSE 6.4 km/h 9.7 km/h 88% 0 mm 40 W/m2
08:16 0.2 °C -1.6 °C 1008 hPa East 6.4 km/h 9.7 km/h 88% 0 mm 37 W/m2
08:22 0.2 °C -1.6 °C 1007.7 hPa ENE 6.4 km/h 6.4 km/h 88% 0 mm 39 W/m2
08:28 0.1 °C -1.8 °C 1007.7 hPa ENE 6.4 km/h 8 km/h 87% 0 mm 47 W/m2
08:34 0.1 °C -1.8 °C 1007.7 hPa East 6.4 km/h 12.9 km/h 87% 0 mm 53 W/m2
08:40 0.1 °C -1.8 °C 1007.7 hPa NNE 8 km/h 8 km/h 87% 0 mm 58 W/m2
08:46 0 °C -1.9 °C 1007.7 hPa ENE 8 km/h 11.3 km/h 87% 0 mm 70 W/m2
08:52 0.1 °C -1.8 °C 1007.7 hPa East 6.4 km/h 6.4 km/h 87% 0 mm 90 W/m2
08:58 0.1 °C -1.8 °C 1007.7 hPa East 6.4 km/h 16.1 km/h 87% 0 mm 102 W/m2
09:04 0.1 °C -1.8 °C 1007.7 hPa SE 8 km/h 14.5 km/h 87% 0 mm 76 W/m2
09:10 0.1 °C -1.8 °C 1007.7 hPa ENE 6.4 km/h 8 km/h 87% 0 mm 91 W/m2
09:16 0.1 °C -1.9 °C 1007.7 hPa ENE 6.4 km/h 12.9 km/h 86% 0 mm 90 W/m2
09:22 0.1 °C -2 °C 1007.7 hPa ENE 6.4 km/h 12.9 km/h 86% 0 mm 84 W/m2
09:28 0.1 °C -2 °C 1007.7 hPa East 8 km/h 12.9 km/h 86% 0 mm 70 W/m2
09:34 0.1 °C -2 °C 1007.7 hPa ENE 8 km/h 16.1 km/h 86% 0 mm 69 W/m2
09:40 0 °C -2.1 °C 1008 hPa ENE 6.4 km/h 6.4 km/h 86% 0 mm 58 W/m2
09:46 0 °C -2.1 °C 1008 hPa ENE 6.4 km/h 12.9 km/h 86% 0 mm 60 W/m2
09:52 0 °C -2.2 °C 1008 hPa ENE 8 km/h 11.3 km/h 85% 0 mm 60 W/m2
09:58 0 °C -2.2 °C 1007.7 hPa SE 8 km/h 11.3 km/h 85% 0 mm 79 W/m2
10:04 0 °C -2.2 °C 1007.7 hPa East 6.4 km/h 8 km/h 85% 0 mm 69 W/m2
10:10 0 °C -2.2 °C 1007.7 hPa ENE 4.8 km/h 4.8 km/h 85% 0 mm 65 W/m2
10:16 0 °C -2.2 °C 1007.7 hPa East 6.4 km/h 6.4 km/h 85% 0 mm 69 W/m2
10:22 0 °C -2.2 °C 1007.7 hPa East 6.4 km/h 6.4 km/h 85% 0 mm 70 W/m2
10:28 0 °C -2.2 °C 1007.7 hPa SSE 8 km/h 12.9 km/h 85% 0 mm 76 W/m2
10:34 0 °C -2.2 °C 1007.7 hPa East 8 km/h 11.3 km/h 85% 0 mm 86 W/m2
10:40 0 °C -2.2 °C 1007.7 hPa ENE 6.4 km/h 6.4 km/h 85% 0 mm 84 W/m2
10:46 0 °C -2.2 °C 1007.7 hPa SE 8 km/h 9.7 km/h 85% 0 mm 104 W/m2
10:52 0.1 °C -2.2 °C 1007.7 hPa ESE 6.4 km/h 6.4 km/h 85% 0 mm 116 W/m2
10:58 0 °C -2.2 °C 1007.7 hPa NE 6.4 km/h 6.4 km/h 85% 0 mm 116 W/m2
11:04 0.1 °C -2.2 °C 1007.7 hPa ENE 6.4 km/h 11.3 km/h 85% 0 mm 121 W/m2
11:10 0.1 °C -2.2 °C 1007.7 hPa ENE 6.4 km/h 12.9 km/h 85% 0 mm 139 W/m2
11:16 0.1 °C -2 °C 1007.7 hPa ESE 6.4 km/h 12.9 km/h 86% 0 mm 156 W/m2
11:22 0 °C -2.1 °C 1007.7 hPa East 6.4 km/h 8 km/h 86% 0 mm 149 W/m2
11:28 -0.1 °C -1.9 °C 1007.7 hPa SE 6.4 km/h 11.3 km/h 87% 0 mm 134 W/m2
11:34 -0.1 °C -2 °C 1007.7 hPa ENE 6.4 km/h 12.9 km/h 87% 0 mm 139 W/m2
11:40 -0.2 °C -2.1 °C 1007.7 hPa East 8 km/h 8 km/h 87% 0 mm 165 W/m2
11:46 -0.1 °C -1.8 °C 1007.7 hPa ESE 8 km/h 8 km/h 88% 0 mm 163 W/m2
11:52 -0.1 °C -1.8 °C 1007.7 hPa East 6.4 km/h 11.3 km/h 88% 0 mm 163 W/m2
11:58 -0.1 °C -1.8 °C 1007.3 hPa ENE 6.4 km/h 11.3 km/h 88% 0 mm 148 W/m2
12:04 -0.1 °C -1.8 °C 1007.3 hPa ESE 6.4 km/h 16.1 km/h 88% 0 mm 195 W/m2
12:10 -0.1 °C -1.7 °C 1007.3 hPa ENE 8 km/h 11.3 km/h 89% 0 mm 246 W/m2
12:16 0.1 °C -1.6 °C 1007 hPa East 8 km/h 12.9 km/h 89% 0 mm 350 W/m2
12:22 0.2 °C -1.4 °C 1007 hPa ENE 8 km/h 8 km/h 89% 0 mm 373 W/m2
12:28 0.4 °C -1.3 °C 1006.7 hPa ENE 8 km/h 14.5 km/h 88% 0 mm 471 W/m2
12:34 0.6 °C -1.3 °C 1006.7 hPa ENE 8 km/h 12.9 km/h 87% 0 mm 417 W/m2
12:40 0.6 °C -1.4 °C 1006.7 hPa NNE 9.7 km/h 9.7 km/h 86% 0 mm 432 W/m2
12:46 0.8 °C -1.4 °C 1006.3 hPa NE 8 km/h 17.7 km/h 85% 0 mm 364 W/m2
12:52 0.9 °C -1.3 °C 1006.7 hPa ENE 6.4 km/h 12.9 km/h 85% 0 mm 334 W/m2
12:58 0.9 °C -1.4 °C 1006.7 hPa East 6.4 km/h 14.5 km/h 84% 0 mm 179 W/m2
13:04 0.8 °C -1.6 °C 1006.7 hPa East 6.4 km/h 12.9 km/h 84% 0 mm 125 W/m2
13:10 0.6 °C -1.8 °C 1006.7 hPa ENE 6.4 km/h 11.3 km/h 84% 0 mm 109 W/m2
13:16 0.4 °C -1.9 °C 1006.7 hPa ESE 8 km/h 11.3 km/h 84% 0 mm 97 W/m2
13:22 0.4 °C -1.8 °C 1006.7 hPa ENE 8 km/h 8 km/h 85% 0 mm 109 W/m2
13:28 0.4 °C -1.8 °C 1006.3 hPa ESE 6.4 km/h 12.9 km/h 85% 0 mm 113 W/m2
13:34 0.4 °C -1.8 °C 1006.3 hPa ENE 4.8 km/h 6.4 km/h 85% 0 mm 109 W/m2
13:40 0.5 °C -1.7 °C 1006 hPa ENE 4.8 km/h 4.8 km/h 85% 0 mm 121 W/m2
13:46 0.4 °C -1.8 °C 1006 hPa ESE 6.4 km/h 9.7 km/h 85% 0 mm 148 W/m2
13:52 0.4 °C -1.8 °C 1006.3 hPa ENE 8 km/h 14.5 km/h 85% 0 mm 102 W/m2
13:58 0.5 °C -1.6 °C 1006.7 hPa North 8 km/h 14.5 km/h 86% 0 mm 105 W/m2
14:04 0.6 °C -1.5 °C 1006.7 hPa ENE 4.8 km/h 6.4 km/h 86% 0 mm 100 W/m2
14:10 0.5 °C -1.7 °C 1006.7 hPa ENE 6.4 km/h 6.4 km/h 85% 0 mm 104 W/m2
14:16 0.5 °C -1.6 °C 1006.7 hPa NE 8 km/h 14.5 km/h 86% 0 mm 118 W/m2
14:22 0.6 °C -1.4 °C 1006.7 hPa ENE 6.4 km/h 6.4 km/h 86% 0 mm 100 W/m2
14:28 0.6 °C -1.4 °C 1006.3 hPa ENE 4.8 km/h 6.4 km/h 86% 0 mm 104 W/m2
14:34 0.6 °C -1.5 °C 1006.3 hPa East 6.4 km/h 6.4 km/h 86% 0 mm 90 W/m2
14:40 0.6 °C -1.3 °C 1006.7 hPa ENE 4.8 km/h 4.8 km/h 87% 0 mm 81 W/m2
14:46 0.6 °C -1.3 °C 1006.7 hPa NE 3.2 km/h 6.4 km/h 87% 0 mm 81 W/m2
14:52 0.6 °C -1.3 °C 1006.7 hPa ESE 3.2 km/h 4.8 km/h 87% 0 mm 81 W/m2
14:58 0.6 °C -1.3 °C 1006.7 hPa ENE 3.2 km/h 4.8 km/h 87% 0 mm 72 W/m2
15:06 0.6 °C -1.3 °C 1006.7 hPa ENE 4.8 km/h 11.3 km/h 87% 0 mm 72 W/m2
15:12 0.6 °C -1.3 °C 1006.7 hPa NE 6.4 km/h 6.4 km/h 87% 0 mm 67 W/m2
15:18 0.6 °C -1.2 °C 1006.7 hPa SE 4.8 km/h 6.4 km/h 88% 0 mm 63 W/m2
15:24 0.7 °C -1.1 °C 1006.7 hPa ENE 1.6 km/h 6.4 km/h 88% 0 mm 69 W/m2
15:30 0.6 °C -1.2 °C 1006.7 hPa ENE 3.2 km/h 3.2 km/h 88% 0 mm 77 W/m2
15:36 0.6 °C -1.2 °C 1006.7 hPa ENE 4.8 km/h 9.7 km/h 88% 0 mm 79 W/m2
15:44 0.6 °C -1.2 °C 1006.7 hPa East 3.2 km/h 4.8 km/h 88% 0 mm 81 W/m2
15:52 0.7 °C -1.1 °C 1006.7 hPa ENE 1.6 km/h 6.4 km/h 88% 0 mm 88 W/m2
15:58 0.7 °C -0.9 °C 1006.7 hPa ENE 3.2 km/h 6.4 km/h 89% 0 mm 76 W/m2
16:04 0.7 °C -0.9 °C 1006.7 hPa East 4.8 km/h 8 km/h 89% 0 mm 74 W/m2
16:10 0.7 °C -0.9 °C 1006.7 hPa ENE 3.2 km/h 4.8 km/h 89% 0 mm 63 W/m2
16:16 0.7 °C -0.9 °C 1006.7 hPa ENE 3.2 km/h 4.8 km/h 89% 0 mm 70 W/m2
16:24 0.7 °C -0.9 °C 1006.7 hPa East 3.2 km/h 8 km/h 89% 0 mm 77 W/m2
16:30 0.7 °C -0.9 °C 1006.7 hPa East 3.2 km/h 4.8 km/h 89% 0 mm 81 W/m2
16:36 0.7 °C -0.9 °C 1006.7 hPa ENE 3.2 km/h 4.8 km/h 89% 0 mm 67 W/m2
16:42 0.7 °C -0.9 °C 1006.7 hPa East 3.2 km/h 3.2 km/h 89% 0 mm 56 W/m2
16:48 0.7 °C -0.9 °C 1006.7 hPa ENE 3.2 km/h 8 km/h 89% 0 mm 49 W/m2
16:54 0.7 °C -0.9 °C 1006.7 hPa East 4.8 km/h 4.8 km/h 89% 0 mm 39 W/m2
17:00 0.7 °C -0.9 °C 1006.7 hPa ENE 3.2 km/h 4.8 km/h 89% 0 mm 32 W/m2
17:06 0.7 °C -1.1 °C 1006.7 hPa East 3.2 km/h 8 km/h 88% 0 mm 28 W/m2
17:12 0.7 °C -1.1 °C 1006.7 hPa ENE 4.8 km/h 6.4 km/h 88% 0 mm 26 W/m2
17:18 0.6 °C -1.2 °C 1006.7 hPa East 4.8 km/h 6.4 km/h 88% 0 mm 19 W/m2
17:24 0.7 °C -1.1 °C 1006.7 hPa South 4.8 km/h 4.8 km/h 88% 0 mm 16 W/m2
17:30 0.7 °C -1.2 °C 1007 hPa East 4.8 km/h 4.8 km/h 87% 0 mm 12 W/m2
17:36 0.7 °C -1.2 °C 1007 hPa ESE 3.2 km/h 4.8 km/h 87% 0 mm 9 W/m2
17:42 0.6 °C -1.3 °C 1007 hPa SE 3.2 km/h 6.4 km/h 87% 0 mm 5 W/m2
17:48 0.6 °C -1.3 °C 1007 hPa SE 3.2 km/h 6.4 km/h 87% 0 mm 5 W/m2
17:54 0.6 °C -1.3 °C 1007 hPa SE 1.6 km/h 8 km/h 87% 0 mm 0 W/m2
18:00 0.6 °C -1.3 °C 1007 hPa East 1.6 km/h 1.6 km/h 87% 0 mm 0 W/m2
18:06 0.7 °C -1.2 °C 1007 hPa ENE 3.2 km/h 4.8 km/h 87% 0 mm 0 W/m2
18:12 0.7 °C -1.3 °C 1007 hPa ESE 4.8 km/h 4.8 km/h 86% 0 mm 0 W/m2
18:18 0.7 °C -1.3 °C 1007.3 hPa ESE 3.2 km/h 4.8 km/h 86% 0 mm 0 W/m2
18:24 0.7 °C -1.4 °C 1007.3 hPa ESE 3.2 km/h 3.2 km/h 86% 0 mm 0 W/m2
18:30 0.7 °C -1.4 °C 1007.3 hPa ENE 1.6 km/h 1.6 km/h 86% 0 mm 0 W/m2
18:36 0.7 °C -1.4 °C 1007.3 hPa ESE 1.6 km/h 1.6 km/h 86% 0 mm 0 W/m2
18:42 0.7 °C -1.4 °C 1007.3 hPa East 1.6 km/h 3.2 km/h 86% 0 mm 0 W/m2
18:48 0.6 °C -1.4 °C 1007.3 hPa ENE 3.2 km/h 3.2 km/h 86% 0 mm 0 W/m2
18:54 0.6 °C -1.4 °C 1007.7 hPa ESE 3.2 km/h 4.8 km/h 86% 0 mm 0 W/m2
19:00 0.6 °C -1.4 °C 1007.7 hPa ESE 3.2 km/h 3.2 km/h 86% 0 mm 0 W/m2
19:06 0.6 °C -1.4 °C 1007.7 hPa East 3.2 km/h 4.8 km/h 86% 0 mm 0 W/m2
19:12 0.6 °C -1.5 °C 1007.7 hPa ENE 1.6 km/h 4.8 km/h 86% 0 mm 0 W/m2
19:18 0.6 °C -1.5 °C 1007.7 hPa East 1.6 km/h 4.8 km/h 86% 0 mm 0 W/m2
19:24 0.6 °C -1.5 °C 1007.7 hPa East 1.6 km/h 1.6 km/h 86% 0 mm 0 W/m2
19:30 0.6 °C -1.5 °C 1007.3 hPa East 1.6 km/h 3.2 km/h 86% 0 mm 0 W/m2
19:36 0.6 °C -1.5 °C 1007.3 hPa SE 3.2 km/h 4.8 km/h 86% 0 mm 0 W/m2
19:42 0.6 °C -1.7 °C 1007.3 hPa East 3.2 km/h 3.2 km/h 85% 0 mm 0 W/m2
19:48 0.6 °C -1.7 °C 1007.3 hPa East 1.6 km/h 8 km/h 85% 0 mm 0 W/m2
19:54 0.6 °C -1.7 °C 1007.3 hPa East 3.2 km/h 4.8 km/h 85% 0 mm 0 W/m2
20:00 0.5 °C -1.7 °C 1007.3 hPa ENE 1.6 km/h 3.2 km/h 85% 0 mm 0 W/m2
20:06 0.6 °C -1.7 °C 1007.7 hPa ENE 3.2 km/h 6.4 km/h 85% 0 mm 0 W/m2
20:12 0.5 °C -1.7 °C 1007.7 hPa East 3.2 km/h 4.8 km/h 85% 0 mm 0 W/m2
20:18 0.5 °C -1.7 °C 1007.7 hPa East 3.2 km/h 4.8 km/h 85% 0 mm 0 W/m2
20:24 0.4 °C -1.8 °C 1007.7 hPa ENE 3.2 km/h 4.8 km/h 85% 0 mm 0 W/m2
20:30 0.4 °C -1.8 °C 1007.7 hPa East 3.2 km/h 4.8 km/h 85% 0 mm 0 W/m2
20:36 0.4 °C -1.8 °C 1007.7 hPa East 1.6 km/h 4.8 km/h 85% 0 mm 0 W/m2
20:42 0.4 °C -1.8 °C 1007.7 hPa ENE 1.6 km/h 1.6 km/h 85% 0 mm 0 W/m2
20:48 0.4 °C -1.8 °C 1007.7 hPa ENE 1.6 km/h 1.6 km/h 85% 0 mm 0 W/m2
20:54 0.3 °C -1.9 °C 1007.7 hPa East 1.6 km/h 3.2 km/h 85% 0 mm 0 W/m2
21:00 0.3 °C -1.7 °C 1007.7 hPa ENE 1.6 km/h 1.6 km/h 86% 0 mm 0 W/m2
21:06 0.3 °C -1.8 °C 1007.3 hPa East 1.6 km/h 4.8 km/h 86% 0 mm 0 W/m2
21:12 0.3 °C -1.8 °C 1007.3 hPa East 1.6 km/h 1.6 km/h 86% 0 mm 0 W/m2
21:18 0.3 °C -1.8 °C 1007.7 hPa ENE 1.6 km/h 3.2 km/h 86% 0 mm 0 W/m2
21:24 0.3 °C -1.8 °C 1007.3 hPa ENE 3.2 km/h 4.8 km/h 86% 0 mm 0 W/m2
21:30 0.3 °C -1.8 °C 1007.3 hPa ESE 1.6 km/h 1.6 km/h 86% 0 mm 0 W/m2
21:36 0.2 °C -1.8 °C 1007.3 hPa East 1.6 km/h 3.2 km/h 86% 0 mm 0 W/m2
21:42 0.2 °C -1.8 °C 1007.3 hPa ENE 1.6 km/h 1.6 km/h 86% 0 mm 0 W/m2
21:48 0.2 °C -1.8 °C 1007.3 hPa East 1.6 km/h 4.8 km/h 86% 0 mm 0 W/m2
21:54 0.2 °C -1.9 °C 1007.3 hPa East 1.6 km/h 4.8 km/h 86% 0 mm 0 W/m2
22:00 0.2 °C -1.9 °C 1007.3 hPa East 1.6 km/h 3.2 km/h 86% 0 mm 0 W/m2
22:06 0.1 °C -1.9 °C 1007.3 hPa ESE 3.2 km/h 6.4 km/h 86% 0 mm 0 W/m2
22:12 0.1 °C -1.9 °C 1007.3 hPa ENE 3.2 km/h 4.8 km/h 86% 0 mm 0 W/m2
22:18 0.1 °C -1.8 °C 1007.3 hPa ESE 3.2 km/h 4.8 km/h 87% 0 mm 0 W/m2
22:24 0.1 °C -1.8 °C 1007.3 hPa ESE 1.6 km/h 3.2 km/h 87% 0 mm 0 W/m2
22:30 0.1 °C -1.8 °C 1007.3 hPa ESE 1.6 km/h 1.6 km/h 87% 0 mm 0 W/m2
22:36 0 °C -1.9 °C 1007.3 hPa ESE 1.6 km/h 1.6 km/h 87% 0 mm 0 W/m2
22:42 0 °C -1.9 °C 1007.3 hPa Calm     87% 0 mm 0 W/m2
22:48 -0.1 °C -1.9 °C 1007.3 hPa Calm     87% 0 mm 0 W/m2
22:54 -0.1 °C -1.8 °C 1007.3 hPa Calm     88% 0 mm 0 W/m2
23:00 -0.1 °C -1.8 °C 1007.3 hPa Calm     88% 0 mm 0 W/m2
23:06 -0.1 °C -1.8 °C 1007.3 hPa Calm   4.8 km/h 88% 0 mm 0 W/m2
23:12 -0.1 °C -1.8 °C 1007.3 hPa ESE 1.6 km/h 1.6 km/h 88% 0 mm 0 W/m2
23:18 -0.1 °C -1.8 °C 1007.3 hPa Calm   1.6 km/h 88% 0 mm 0 W/m2
23:24 -0.1 °C -1.8 °C 1007 hPa Calm   1.6 km/h 88% 0 mm 0 W/m2
23:30 -0.1 °C -1.8 °C 1007 hPa ESE 1.6 km/h 1.6 km/h 88% 0 mm 0 W/m2
23:36 -0.2 °C -1.9 °C 1007 hPa East 1.6 km/h 4.8 km/h 88% 0 mm 0 W/m2
23:42 -0.2 °C -1.9 °C 1007 hPa East 1.6 km/h 1.6 km/h 88% 0 mm 0 W/m2
23:48 -0.2 °C -1.9 °C 1007 hPa East 1.6 km/h 1.6 km/h 88% 0 mm 0 W/m2
23:54 -0.2 °C -1.9 °C 1007 hPa East 1.6 km/h 3.2 km/h 88% 0 mm 0 W/m2
Country Meadow, Clay, NY, USA
Compliments of Weather Underground - 2 mb